GSAT-6

Last updated on May 21, 2019, 3:10 a.m. UTC

1 40880U 15041A   19140.71577162 -.00000175  00000-0  00000+0 0  9995
2 40880   0.0648 104.0048 0004205 172.1281 302.6727  1.00271191 13711
UTC
Height (km)
Latitude
Longitude
Inclination
Orbital Period
UTC large
Height (km)
Speed (km/s)
/
Latitude / Longitude
Inclination (degrees)
Orbital Period (minutes)
Azimuth
Elevation
Range (km)
Doppler Factor
iOS Compass Heading
iOS Angle

Next 30 passes for location: Hong Kong

Rise time Rise Azimuth (degrees) Set time Set Azimuth (degrees) Duration Max altitude (degrees)

No matching passes for this satellites